FW4758 Weather Reports


time (UTC)temp
F
wind
direction
speed
knots
gust
knots
rain 1hr
in
rain 24hr
in
rain mn
in
humidity
%
barometer
mb
20260509211517 87 69 0.9 6.1 0.00 0.00 0.00 48 1006.6
20260509210021 87 355 1.7 5.2 0.00 0.00 0.00 50 1006.8
20260509204514 86 227 0.9 3.5 0.00 0.05 0.00 51 1007.0
20260509203019 86 232 1.7 5.2 0.00 0.05 0.00 52 1007.2
20260509201512 86 296 0.9 6.1 0.00 0.05 0.00 51 1007.5
20260509200013 86 319 1.7 5.2 0.00 0.05 0.00 52 1007.7
20260509194512 86 263 1.7 4.3 0.00 0.13 0.00 52 1007.8
20260509193006 85 306 0.9 5.2 0.00 0.13 0.00 51 1008.1
20260509191505 85 278 2.6 7.0 0.00 0.13 0.00 52 1008.2
20260509190002 84 290 3.5 6.1 0.00 0.13 0.00 57 1008.3
20260509184603 84 286 1.7 5.2 0.00 0.13 0.00 55 1008.4
20260509183138 83 335 5.2 8.7 0.00 0.13 0.00 55 1008.5
20260509181612 83 223 0.9 5.2 0.00 0.13 0.00 56 1008.7
20260509180055 82 45 1.7 6.1 0.00 0.13 0.00 58 1008.9
20260509174554 81 306 2.6 7.8 0.00 0.13 0.00 59 1009.0
20260509173101 81 258 3.5 7.0 0.00 0.13 0.00 58 1009.1
20260509171548 81 344 2.6 5.2 0.00 0.13 0.00 64 1009.3
20260509170046 80 303 1.7 6.1 0.00 0.13 0.00 66 1009.3
20260509164543 80 318 0.9 6.1 0.00 0.13 0.00 66 1009.5
20260509163040 79 254 1.7 7.8 0.00 0.13 0.00 68 1009.6
20260509161539 78 311 2.6 7.8 0.00 0.13 0.00 67 1009.7
20260509160039 78 296 4.3 7.0 0.00 0.13 0.00 64 1009.7
20260509154536 77 259 3.5 7.8 0.00 0.13 0.00 66 1009.6
20260509153035 77 335 3.5 7.8 0.00 0.13 0.00 67 1009.4
20260509151532 76 311 3.5 7.0 0.00 0.13 0.00 70 1009.3
20260509150032 76 355 4.3 7.0 0.00 0.13 0.00 70 1009.3
20260509144535 75 355 5.2 10.4 0.00 0.13 0.00 72 1009.4
20260509143024 74 321 5.2 10.4 0.00 0.13 0.00 75 1009.4
20260509141520 72 304 5.2 8.7 0.00 0.13 0.00 81 1009.6
20260509140016 71 295 2.6 7.8 0.00 0.13 0.00 82 1009.7
20260509134514 69 306 4.3 8.7 0.00 0.13 0.00 83 1009.8
20260509133013 68 290 3.5 8.7 0.00 0.13 0.00 84 1009.7
20260509131513 68 272 4.3 7.8 0.00 0.13 0.00 83 1009.5
20260509130013 67 287 3.5 6.1 0.00 0.13 0.00 84 1009.4
20260509124514 66 249 1.7 4.3 0.00 0.13 0.00 84 1009.5
20260509123011 65 277 0.9 3.5 0.00 0.13 0.00 84 1009.3
20260509121514 63 288 1.7 4.3 0.00 0.13 0.00 84 1009.3
20260509120013 63 259 1.7 3.5 0.00 0.13 0.00 84 1009.2
20260509114509 63 167 0.0 0.0 0.00 0.13 0.00 83 1009.0
20260509113006 64 167 0.0 0.0 0.00 0.13 0.00 83 1008.8
20260509111504 65 13 0.0 0.0 0.00 0.13 0.00 81 1008.6
20260509110000 66 292 0.0 2.6 0.00 0.13 0.00 81 1008.5
20260509104559 67 282 0.9 5.2 0.00 0.13 0.00 79 1008.5
20260509103101 68 319 6.1 10.4 0.00 0.13 0.00 80 1008.3
20260509101559 69 310 2.6 7.0 0.00 0.13 0.00 84 1008.3
20260509094555 69 193 7.0 13.0 0.00 0.13 0.00 84 1006.5
20260509093058 69 193 8.7 16.5 0.00 0.13 0.00 84 1005.6
20260509091554 69 143 8.7 17.4 0.00 0.13 0.00 84 1005.2
20260509090051 69 156 8.7 12.2 0.00 0.13 0.00 84 1005.9
20260509084554 69 178 8.7 13.9 0.00 0.13 0.00 84 1006.2
20260509083043 68 186 6.1 10.4 0.00 0.13 0.00 83 1006.6
20260509081542 67 166 3.5 8.7 0.00 0.13 0.00 82 1007.4
20260509080049 67 120 6.1 7.8 0.00 0.13 0.00 82 1007.8
20260509074536 66 178 2.6 6.1 0.00 0.13 0.00 83 1008.4
20260509073034 67 195 3.5 5.2 0.00 0.13 0.00 83 1009.4
20260509071530 67 200 2.6 7.0 0.00 0.13 0.00 82 1010.1
20260509070030 67 289 2.6 6.1 0.00 0.13 0.00 83 1011.0
20260509064528 67 288 1.7 3.5 0.00 0.13 0.00 83 1010.9
20260509063026 67 303 2.6 6.1 0.00 0.13 0.00 82 1010.6
20260509061525 67 328 1.7 4.3 0.00 0.13 0.00 83 1010.2
20260509060026 67 343 2.6 5.2 0.00 0.13 0.00 83 1010.3
20260509054520 67 327 2.6 3.5 0.00 0.13 0.00 83 1010.0
20260509053030 67 146 0.0 2.6 0.00 0.13 0.00 83 1009.4
20260509051523 67 171 0.9 3.5 0.00 0.13 0.00 84 1009.3
20260509050016 67 153 1.7 3.5 0.00 0.13 0.00 84 1009.2
20260509044511 68 103 1.7 2.6 0.00 0.13 0.13 84 1009.5
20260509043011 68 110 0.9 2.6 0.00 0.13 0.13 84 1009.3
20260509041512 68 76 1.7 4.3 0.00 0.13 0.13 84 1009.3
20260509040011 69 138 1.7 3.5 0.00 0.13 0.13 84 1009.0
20260509034509 69 148 3.5 6.1 0.00 0.13 0.13 84 1008.6
20260509033009 69 121 2.6 6.1 0.00 0.13 0.13 84 1008.6
20260509031509 69 144 2.6 6.1 0.00 0.13 0.13 84 1008.3
20260509030009 69 150 2.6 5.2 0.00 0.13 0.13 84 1008.0
20260509024508 70 167 2.6 5.2 0.00 0.13 0.13 84 1007.7
20260509023007 70 178 2.6 5.2 0.00 0.13 0.13 84 1007.8
20260509021507 71 151 2.6 4.3 0.00 0.13 0.13 84 1007.9
20260509020012 70 167 1.7 4.3 0.00 0.13 0.13 84 1008.0
20260509014515 70 165 1.7 4.3 0.00 0.13 0.13 84 1007.8
20260509013006 70 150 1.7 3.5 0.00 0.13 0.13 84 1007.7
20260509011506 71 155 0.0 2.6 0.00 0.13 0.13 83 1007.7
20260509010005 71 120 1.7 4.3 0.00 0.13 0.13 83 1007.0
20260509004503 71 134 2.6 3.5 0.00 0.13 0.13 83 1007.0
20260509003001 72 157 1.7 3.5 0.00 0.13 0.13 83 1007.1
20260509001502 72 134 1.7 2.6 0.00 0.13 0.13 82 1007.4
20260509000001 72 142 1.7 3.5 0.00 0.13 0.13 83 1007.5
20260508234600 72 178 0.9 4.3 0.00 0.13 0.13 83 1007.5
20260508233132 72 159 1.7 3.5 0.00 0.13 0.13 82 1007.4
20260508231559 72 150 1.7 5.2 0.00 0.13 0.13 82 1007.4
20260508230100 72 167 3.5 6.1 0.00 0.13 0.13 82 1007.5
20260508224618 72 121 3.5 7.0 0.00 0.13 0.13 82 1007.5
20260508223057 72 92 4.3 8.7 0.00 0.13 0.13 82 1007.5
20260508221554 71 125 4.3 7.8 0.00 0.13 0.13 83 1007.6
20260508220055 70 126 5.2 8.7 0.00 0.13 0.13 83 1007.8
20260508214549 69 123 7.0 9.6 0.00 0.13 0.13 84 1008.0
20260508213049 68 117 2.6 5.2 0.00 0.13 0.13 84 1008.3